When you browse on this site, cookies collect data to enhance your experience and personalize the content and advertising you see.
Visit our Privacy Policy to learn more. By continuing to use the site, you agree to this use of cookies and data.
  • en Suisse
  • Liste des pays
  • À 7 jours
  • Température de l'eau
  • Carte météo
  • Widgets météo
  • user-avatar
    Se connecter

    Météo par heure à Barra

    Ce jour, 25 Février, Mardi

    Heure Température Précipitation Vent Pression Humidité
    00:00 +26°C° 0.9 mm 3 m/s 746 mmHg 97%
    01:00 +26°C° 0.9 mm 3 m/s 746 mmHg 97%
    02:00 +26°C° 0.6 mm 2 m/s 746 mmHg 97%
    03:00 +26°C° 0.6 mm 2 m/s 746 mmHg 97%
    04:00 +26°C° 0 mm 2 m/s 746 mmHg 96%
    05:00 +26°C° 0.1 mm 2 m/s 746 mmHg 96%
    06:00 +26°C° 0.1 mm 1 m/s 746 mmHg 95%
    07:00 +26°C° 0.1 mm 1 m/s 746 mmHg 95%
    08:00 +27°C° 0.2 mm 1 m/s 746 mmHg 88%
    09:00 +29°C° 0.2 mm 1 m/s 746 mmHg 81%
    10:00 +30°C° 0 mm 2 m/s 747 mmHg 74%
    11:00 +30°C° 0.3 mm 2 m/s 747 mmHg 76%
    12:00 +30°C° 0.3 mm 2 m/s 746 mmHg 79%
    13:00 +30°C° 0.3 mm 2 m/s 745 mmHg 81%
    14:00 +29°C° 0.3 mm 2 m/s 745 mmHg 83%
    15:00 +29°C° 0.3 mm 2 m/s 745 mmHg 85%
    16:00 +29°C° 0 mm 2 m/s 744 mmHg 87%
    17:00 +28°C° 1.4 mm 2 m/s 745 mmHg 89%
    18:00 +28°C° 1.4 mm 2 m/s 745 mmHg 91%
    19:00 +27°C° 1.4 mm 3 m/s 745 mmHg 93%
    20:00 +27°C° 1 mm 3 m/s 746 mmHg 94%
    21:00 +27°C° 1 mm 3 m/s 746 mmHg 95%
    22:00 +26°C° 0 mm 2 m/s 747 mmHg 96%
    23:00 +26°C° 0.4 mm 2 m/s 746 mmHg 96%

    Demain, 26 Février, Mercredi

    Heure Température Précipitation Vent Pression Humidité
    00:00 +26°C° 0.4 mm 1 m/s 746 mmHg 96%
    01:00 +26°C° 0.4 mm 1 m/s 745 mmHg 96%
    02:00 +26°C° 1.1 mm 1 m/s 745 mmHg 95%
    03:00 +26°C° 1.1 mm 1 m/s 745 mmHg 95%
    04:00 +26°C° 1.1 mm 1 m/s 745 mmHg 95%
    05:00 +26°C° 0.8 mm 1 m/s 745 mmHg 94%
    06:00 +26°C° 0.8 mm 1 m/s 745 mmHg 94%
    07:00 +26°C° 0.8 mm 1 m/s 746 mmHg 93%
    08:00 +27°C° 0.7 mm 1 m/s 746 mmHg 89%
    09:00 +27°C° 0.7 mm 0 m/s 746 mmHg 86%
    10:00 +28°C° 0.7 mm 0 m/s 746 mmHg 82%
    11:00 +31°C° 0.6 mm 1 m/s 746 mmHg 78%
    12:00 +31°C° 0.6 mm 1 m/s 745 mmHg 75%
    13:00 +32°C° 0.6 mm 2 m/s 744 mmHg 71%
    14:00 +31°C° 1 mm 2 m/s 744 mmHg 76%
    15:00 +31°C° 1 mm 2 m/s 744 mmHg 81%
    16:00 +30°C° 1 mm 3 m/s 743 mmHg 86%
    17:00 +29°C° 0.7 mm 3 m/s 744 mmHg 88%
    18:00 +28°C° 0.7 mm 3 m/s 744 mmHg 90%
    19:00 +27°C° 0.7 mm 2 m/s 744 mmHg 92%
    20:00 +27°C° 0 mm 2 m/s 745 mmHg 92%
    21:00 +27°C° 0 mm 2 m/s 745 mmHg 92%
    22:00 +27°C° 0 mm 2 m/s 746 mmHg 92%
    23:00 +26°C° 0.2 mm 2 m/s 745 mmHg 93%

    Après-demain, 27 Février, Jeudi

    Heure Température Précipitation Vent Pression Humidité
    00:00 +26°C° 0.2 mm 2 m/s 745 mmHg 93%
    01:00 +26°C° 0.2 mm 2 m/s 744 mmHg 93%
    02:00 +26°C° 0.2 mm 2 m/s 744 mmHg 93%
    03:00 +26°C° 0.2 mm 2 m/s 744 mmHg 93%
    04:00 +26°C° 0.2 mm 2 m/s 744 mmHg 93%
    05:00 +26°C° 0.3 mm 2 m/s 744 mmHg 93%
    06:00 +26°C° 0.3 mm 2 m/s 744 mmHg 93%
    07:00 +26°C° 0.3 mm 2 m/s 745 mmHg 93%
    08:00 +28°C° 0 mm 2 m/s 745 mmHg 84%
    09:00 +30°C° 0 mm 1 m/s 745 mmHg 74%
    10:00 +32°C° 0 mm 1 m/s 745 mmHg 65%
    11:00 +33°C° 0 mm 1 m/s 744 mmHg 63%
    12:00 +35°C° 0 mm 2 m/s 744 mmHg 61%
    13:00 +35°C° 0 mm 3 m/s 743 mmHg 59%
    14:00 +34°C° 0.7 mm 3 m/s 743 mmHg 66%
    15:00 +33°C° 0.7 mm 3 m/s 742 mmHg 74%
    16:00 +31°C° 0.7 mm 2 m/s 742 mmHg 82%
    17:00 +30°C° 0.3 mm 2 m/s 742 mmHg 84%
    18:00 +29°C° 0.3 mm 2 m/s 743 mmHg 87%
    19:00 +28°C° 0.3 mm 2 m/s 743 mmHg 90%
    20:00 +27°C° 0.2 mm 2 m/s 744 mmHg 90%
    21:00 +27°C° 0.2 mm 2 m/s 744 mmHg 90%
    22:00 +27°C° 0.2 mm 2 m/s 745 mmHg 90%
    23:00 +27°C° 0 mm 2 m/s 744 mmHg 89%

    28 Février, Vendredi

    Heure Température Précipitation Vent Pression Humidité
    00:00 +27°C° 0 mm 2 m/s 743 mmHg 89%
    01:00 +27°C° 0 mm 2 m/s 743 mmHg 89%
    02:00 +26°C° 0 mm 2 m/s 743 mmHg 89%
    03:00 +26°C° 0 mm 1 m/s 742 mmHg 90%
    04:00 +26°C° 0 mm 1 m/s 742 mmHg 90%
    05:00 +26°C° 0 mm 1 m/s 743 mmHg 89%
    06:00 +26°C° 0 mm 1 m/s 743 mmHg 89%
    07:00 +26°C° 0 mm 1 m/s 743 mmHg 88%
    08:00 +29°C° 0 mm 1 m/s 744 mmHg 78%
    09:00 +32°C° 0 mm 1 m/s 744 mmHg 67%
    10:00 +35°C° 0 mm 1 m/s 744 mmHg 57%
    11:00 +35°C° 0 mm 1 m/s 744 mmHg 53%
    12:00 +36°C° 0 mm 2 m/s 743 mmHg 50%
    13:00 +37°C° 0 mm 2 m/s 743 mmHg 47%
    14:00 +36°C° 0 mm 2 m/s 742 mmHg 50%
    15:00 +36°C° 0 mm 3 m/s 742 mmHg 52%
    16:00 +35°C° 0 mm 3 m/s 741 mmHg 55%
    17:00 +34°C° 0 mm 2 m/s 742 mmHg 63%
    18:00 +31°C° 0 mm 1 m/s 742 mmHg 72%
    19:00 +29°C° 0 mm 1 m/s 743 mmHg 80%
    20:00 +29°C° 0 mm 1 m/s 743 mmHg 80%
    21:00 +28°C° 0 mm 1 m/s 744 mmHg 80%
    22:00 +28°C° 0 mm 2 m/s 744 mmHg 79%
    23:00 +27°C° 0 mm 1 m/s 744 mmHg 79%

    29 Février, Samedi

    Heure Température Précipitation Vent Pression Humidité
    00:00 +27°C° 0 mm 1 m/s 744 mmHg 79%
    01:00 +27°C° 0 mm 1 m/s 743 mmHg 79%
    02:00 +27°C° 0 mm 1 m/s 743 mmHg 80%
    03:00 +26°C° 0 mm 1 m/s 743 mmHg 80%
    04:00 +26°C° 0 mm 1 m/s 743 mmHg 80%
    05:00 +26°C° 0 mm 1 m/s 743 mmHg 80%
    06:00 +27°C° 0 mm 1 m/s 744 mmHg 80%
    07:00 +27°C° 0 mm 1 m/s 744 mmHg 80%
    08:00 +29°C° 0 mm 1 m/s 744 mmHg 71%
    09:00 +32°C° 0 mm 1 m/s 745 mmHg 62%
    10:00 +34°C° 0 mm 1 m/s 745 mmHg 53%
    11:00 +34°C° 0 mm 1 m/s 745 mmHg 52%
    12:00 +35°C° 0 mm 2 m/s 744 mmHg 50%
    13:00 +36°C° 0 mm 3 m/s 744 mmHg 49%
    14:00 +35°C° 0 mm 3 m/s 744 mmHg 51%
    15:00 +35°C° 0 mm 3 m/s 743 mmHg 53%
    16:00 +34°C° 0 mm 3 m/s 743 mmHg 55%
    17:00 +32°C° 0.1 mm 2 m/s 743 mmHg 63%
    18:00 +30°C° 0.1 mm 2 m/s 743 mmHg 71%
    19:00 +28°C° 0.1 mm 1 m/s 744 mmHg 80%
    20:00 +28°C° 0 mm 1 m/s 744 mmHg 82%
    21:00 +27°C° 0 mm 2 m/s 745 mmHg 83%
    22:00 +26°C° 0 mm 2 m/s 745 mmHg 85%
    23:00 +26°C° 0 mm 1 m/s 745 mmHg 85%

    1 Mars, Dimanche

    Heure Température Précipitation Vent Pression Humidité
    00:00 +25°C° 0 mm 1 m/s 745 mmHg 85%
    01:00 +25°C° 0 mm 1 m/s 744 mmHg 84%
    02:00 +25°C° 0 mm 1 m/s 744 mmHg 84%
    03:00 +25°C° 0 mm 1 m/s 744 mmHg 83%
    04:00 +24°C° 0 mm 1 m/s 743 mmHg 83%
    05:00 +24°C° 0 mm 1 m/s 744 mmHg 81%
    06:00 +25°C° 0 mm 1 m/s 744 mmHg 80%
    07:00 +25°C° 0 mm 1 m/s 745 mmHg 79%
    08:00 +28°C° 0 mm 1 m/s 745 mmHg 69%
    09:00 +31°C° 0 mm 1 m/s 745 mmHg 60%
    10:00 +33°C° 0 mm 1 m/s 745 mmHg 50%
    11:00 +34°C° 0 mm 1 m/s 745 mmHg 49%
    12:00 +35°C° 0 mm 2 m/s 744 mmHg 48%
    13:00 +35°C° 0 mm 3 m/s 744 mmHg 47%
    14:00 +34°C° 0 mm 2 m/s 744 mmHg 52%
    15:00 +34°C° 0 mm 2 m/s 743 mmHg 57%
    16:00 +32°C° 0 mm 2 m/s 743 mmHg 62%
    17:00 +30°C° 0 mm 2 m/s 743 mmHg 68%
    18:00 +29°C° 0 mm 2 m/s 743 mmHg 74%
    19:00 +28°C° 0 mm 1 m/s 744 mmHg 79%
    20:00 +27°C° 0 mm 1 m/s 744 mmHg 81%
    21:00 +27°C° 0 mm 1 m/s 745 mmHg 83%
    22:00 +26°C° 0 mm 1 m/s 745 mmHg 84%
    23:00 +26°C° 0 mm 1 m/s 745 mmHg 85%
    Voir plus